Wind_Speed
61 67 68 66 62 58 52 45 41 40 41 38 35 33 33 30 26 24 22 23 25 27 27 26 26 27 28 28 29 29 27 25 24 25 27 29 31 34 36 36 36 36 35 36
58 66 65 61 58 55 51 46 44 42 40 37 35 32 33 32 27 26 24 24 25 26 26 26 26 28 30 30 29 26 24 24 24 26 28 31 33 35 36 36 36 36 37 38
56 62 62 57 54 53 51 47 44 40 37 36 33 31 32 32 29 27 26 25 25 25 25 25 27 29 30 29 27 25 23 24 25 27 30 33 34 35 35 35 36 37 39 40
53 60 59 54 52 51 48 45 42 39 37 36 33 31 31 31 30 28 27 27 26 25 25 25 26 28 28 27 25 25 25 26 28 30 32 34 35 35 35 36 38 39 40 41
54 58 57 52 49 46 44 43 41 38 37 34 31 30 30 31 30 29 29 28 27 26 26 26 26 26 26 25 26 26 28 29 31 32 33 34 35 36 37 38 39 39 40 41
49 54 53 48 45 44 45 43 40 36 35 33 31 30 29 32 30 29 28 28 28 28 28 27 27 26 26 26 27 28 29 31 32 33 34 35 36 38 38 39 39 40 42 43
48 51 52 48 46 46 45 42 39 37 35 31 30 30 30 31 29 27 27 28 28 28 28 28 28 27 27 28 29 29 30 31 32 34 35 36 38 38 39 39 40 42 44 47
48 48 50 49 46 45 44 41 38 36 34 31 30 29 30 30 28 26 25 25 26 26 27 28 28 28 28 29 30 30 31 32 34 35 36 37 37 38 38 40 42 44 47 51
45 45 48 48 45 42 41 39 36 33 31 31 29 28 28 28 27 26 24 23 24 26 28 29 29 28 29 30 31 31 32 33 35 36 36 36 36 38 39 42 45 48 52 56
43 45 46 46 44 41 39 37 35 33 31 30 29 27 27 26 25 25 24 24 25 26 28 29 29 29 30 31 31 31 32 33 34 34 35 36 38 40 43 47 51 54 58 61
43 43 45 44 43 40 39 37 35 32 30 28 27 25 25 24 24 24 25 25 26 27 29 29 29 30 30 31 31 31 32 33 33 34 36 38 41 45 49 53 56 59 62 65
43 43 43 43 42 38 36 33 31 30 28 26 26 25 24 23 23 24 25 26 27 28 29 29 28 28 29 30 30 32 32 32 34 36 39 42 46 50 54 57 60 63 66 69
43 43 43 43 43 42 38 35 32 30 29 28 27 25 24 25 25 25 25 26 27 28 28 27 27 28 29 30 31 32 33 35 37 40 44 47 51 55 58 62 65 67 69 72
41 40 40 40 39 38 35 32 31 31 29 28 26 23 23 26 26 27 27 28 28 27 26 26 27 29 30 31 32 34 35 38 41 45 48 52 56 59 63 66 68 70 72 73
37 37 37 37 37 37 37 36 35 34 31 30 27 26 26 28 28 28 28 28 28 27 26 27 28 30 31 32 34 36 39 42 45 49 53 56 60 64 67 69 71 72 73 74
32 33 34 35 35 36 36 37 38 37 35 32 30 28 28 30 29 28 28 27 27 27 27 28 29 30 32 34 37 39 42 45 49 53 57 61 65 67 69 71 71 71 73 75
28 31 33 34 36 36 37 36 37 37 35 33 31 26 28 28 28 27 27 27 28 28 29 29 30 32 34 36 39 42 45 49 53 58 62 65 68 69 70 70 70 71 73 76
23 26 28 31 34 36 32 32 33 33 31 30 28 25 26 27 27 27 28 28 29 30 30 31 32 34 36 39 42 45 49 54 58 62 66 68 69 69 69 69 71 73 75 78
22 22 23 24 26 27 27 26 27 27 26 26 25 25 26 26 27 27 28 29 30 30 31 33 35 36 39 41 45 49 54 58 63 66 69 69 69 68 68 70 72 75 78 81
24 23 23 22 22 20 21 23 23 25 23 23 24 24 25 26 27 28 30 31 32 33 34 35 36 38 41 45 49 54 58 63 66 69 69 68 68 68 69 71 74 77 81 85
24 23 23 21 21 20 21 22 22 21 20 21 23 24 26 28 30 31 32 33 34 35 35 36 38 41 45 49 54 59 62 66 69 69 68 67 68 69 71 73 77 81 85 89
22 22 22 23 23 21 22 24 24 24 24 25 26 28 29 31 32 33 33 33 34 35 36 38 41 45 50 54 59 62 66 68 68 67 66 67 69 71 73 76 80 84 89 92
21 20 20 21 19 19 20 22 23 25 26 28 29 29 30 30 31 31 32 32 33 35 38 42 46 50 54 58 62 65 67 66 65 64 65 67 69 72 76 80 84 88 92 93
16 16 16 16 16 16 17 19 20 22 24 25 27 28 28 29 29 30 31 32 35 39 42 46 51 55 58 62 64 65 64 63 62 63 65 68 71 75 79 84 88 91 92 91
15 14 14 13 13 14 16 18 20 21 23 25 26 27 28 29 30 32 34 37 40 43 47 51 54 58 60 61 61 60 59 59 61 63 67 71 75 80 84 88 90 91 89 86
15 15 14 14 15 16 17 20 22 23 25 26 28 30 31 32 34 36 38 41 44 47 50 54 56 57 58 57 56 56 56 59 62 66 71 75 80 84 88 91 90 88 84 78
Wind_Direction
208 207 206 208 211 212 212 212 213 217 222 222 221 219 227 232 228 227 227 224 222 224 230 238 245 253 261 266 270 271 271 273 274 277 280 286 290 294 296 296 296 295 296 296
204 203 202 206 209 210 208 208 211 216 220 221 221 219 225 232 228 226 227 226 223 224 230 238 247 256 262 267 269 268 269 271 274 278 283 288 292 294 295 295 295 296 298 300
202 198 198 202 207 206 205 206 210 217 219 221 222 219 223 230 228 227 227 226 224 226 232 242 252 259 262 264 265 266 268 271 275 280 285 289 292 293 295 296 298 299 300 301
198 195 195 200 204 203 202 204 210 215 218 220 220 219 223 229 229 227 226 226 226 230 238 249 257 259 260 262 265 268 270 273 277 281 286 290 293 295 296 296 297 298 299 298
195 193 192 198 201 199 198 203 210 214 217 218 217 219 221 228 229 227 225 227 230 237 245 253 258 259 260 263 267 270 273 277 280 284 288 291 293 293 294 295 296 296 295 294
190 191 192 193 196 196 197 204 209 213 217 216 214 216 213 226 228 228 227 230 235 241 248 255 258 260 263 267 271 274 277 280 283 286 289 291 293 294 294 295 295 294 293 293
183 188 191 191 193 194 197 203 207 211 214 213 214 216 208 221 227 230 231 234 238 243 249 255 259 263 267 271 274 276 278 281 283 287 290 292 294 295 295 295 295 295 296 298
179 184 189 192 194 194 198 203 207 210 212 211 213 216 213 216 224 229 233 236 240 245 249 253 258 263 268 271 273 276 278 282 286 290 292 294 294 294 294 295 296 298 300 303
177 183 189 194 195 196 199 204 208 212 212 212 214 218 220 220 226 231 235 238 242 246 251 256 261 265 268 271 273 277 282 286 290 292 294 294 294 294 296 298 300 303 305 306
178 184 188 192 195 198 201 205 209 211 212 214 213 216 222 227 231 235 238 242 246 251 256 261 265 267 270 273 277 282 286 290 293 294 294 294 295 297 300 303 304 306 306 306
178 185 189 194 198 200 204 206 209 213 215 216 216 219 228 235 238 240 243 248 252 256 260 263 266 269 273 277 282 286 290 293 293 293 294 295 298 301 303 305 307 307 307 307
184 188 193 199 203 205 207 210 213 218 219 221 224 227 233 241 243 244 247 251 255 259 262 264 267 271 276 281 287 291 293 293 293 294 296 299 301 304 305 307 307 307 307 307
191 195 199 203 205 209 211 212 215 221 224 222 225 232 240 246 248 249 252 255 257 260 262 265 269 274 280 285 289 291 292 293 295 297 300 302 304 305 306 307 308 307 307 307
197 201 206 210 213 216 219 222 225 229 229 228 231 239 246 247 247 249 253 255 258 261 263 267 272 278 282 285 288 289 292 294 297 300 302 303 305 306 307 308 308 307 307 307
200 204 207 212 214 217 220 224 228 231 232 234 237 241 242 245 246 248 251 255 258 261 265 270 275 279 282 284 286 289 293 296 299 301 303 305 306 307 308 308 308 307 307 307
203 206 209 213 217 220 222 223 226 229 232 235 236 238 241 245 247 249 251 253 257 261 267 272 276 279 282 285 288 292 295 298 301 303 305 306 307 308 308 308 307 307 307 308
207 208 211 214 217 220 223 225 228 231 234 237 236 236 241 244 248 250 253 256 259 264 269 274 278 281 284 287 290 294 297 301 303 305 306 307 308 308 307 307 307 307 308 310
200 206 212 216 219 223 224 227 231 231 232 235 237 239 245 248 251 254 256 259 262 266 271 275 279 282 285 289 293 297 301 303 305 306 307 308 308 307 307 306 306 308 310 313
195 200 207 215 222 223 224 226 229 231 231 236 240 243 247 251 254 257 259 262 265 269 272 276 279 283 287 292 296 300 303 304 305 306 307 308 308 307 306 306 308 310 312 314
197 203 211 219 224 224 220 224 227 231 234 239 243 247 251 254 258 260 262 265 268 271 274 278 281 285 290 295 299 301 303 304 305 306 308 308 308 307 307 308 310 312 314 315
205 212 217 223 226 222 219 223 228 234 235 239 246 250 254 259 261 263 266 267 269 273 277 280 285 290 294 297 299 301 303 304 306 307 308 308 308 308 309 310 312 314 315 316
212 218 222 226 228 224 225 228 233 237 240 243 248 254 258 261 264 266 268 270 272 276 280 285 289 293 295 297 299 301 303 306 308 309 309 309 309 310 312 313 314 315 316 316
215 219 223 227 230 229 234 238 240 244 248 251 253 256 260 262 264 267 269 272 275 280 284 288 291 293 295 298 300 303 306 308 310 310 310 310 311 312 313 314 315 315 316 316
209 214 219 223 228 235 240 245 248 252 254 257 260 262 263 265 266 268 271 276 280 283 286 289 292 294 297 300 303 306 309 310 310 311 311 312 313 313 314 315 315 315 315 315
208 215 223 230 237 244 249 253 255 258 260 262 263 263 265 267 270 273 277 280 283 285 288 291 294 297 300 304 307 309 311 311 312 312 313 314 314 314 315 315 315 316 316 316
216 224 231 240 247 255 258 261 262 263 265 266 266 267 270 272 275 277 279 282 285 288 291 295 298 302 305 308 310 311 312 313 313 314 315 315 315 315 315 315 315 316 316 317
Height
5652 5667 5681 5697 5711 5724 5735 5745 5751 5755 5758 5765 5770 5775 5777 5780 5785 5788 5790 5792 5793 5795 5797 5798 5798 5799 5799 5798 5798 5797 5796 5795 5793 5792 5791 5789 5787 5784 5780 5777 5773 5770 5767 5765
5644 5658 5679 5694 5706 5717 5728 5737 5743 5747 5752 5760 5765 5771 5773 5775 5780 5783 5785 5787 5789 5790 5792 5792 5793 5793 5793 5792 5792 5791 5790 5789 5788 5787 5785 5783 5780 5777 5773 5770 5767 5764 5761 5757
5642 5661 5676 5689 5700 5711 5722 5731 5738 5743 5749 5755 5761 5767 5768 5771 5774 5778 5780 5782 5784 5786 5787 5787 5787 5787 5786 5786 5786 5785 5784 5783 5782 5780 5778 5776 5773 5769 5766 5763 5760 5756 5753 5750
5639 5655 5670 5684 5695 5707 5718 5727 5732 5738 5744 5749 5756 5761 5764 5766 5769 5772 5775 5778 5780 5781 5782 5782 5781 5781 5781 5781 5781 5780 5779 5778 5776 5774 5771 5768 5765 5762 5759 5756 5752 5749 5745 5741
5636 5650 5666 5680 5694 5705 5715 5721 5727 5732 5738 5745 5751 5756 5760 5761 5763 5767 5770 5773 5775 5776 5777 5776 5776 5775 5775 5775 5775 5775 5774 5772 5770 5767 5765 5762 5758 5755 5752 5748 5744 5741 5737 5732
5638 5652 5666 5679 5691 5700 5708 5715 5721 5727 5733 5741 5746 5750 5755 5755 5758 5761 5765 5768 5769 5771 5771 5770 5770 5770 5770 5770 5770 5769 5768 5766 5763 5761 5758 5755 5751 5747 5744 5740 5736 5732 5727 5723
5636 5649 5662 5675 5684 5693 5701 5709 5717 5722 5728 5736 5741 5745 5750 5750 5753 5756 5760 5762 5764 5765 5765 5764 5764 5764 5764 5765 5764 5763 5761 5759 5756 5753 5750 5747 5743 5739 5735 5731 5727 5722 5717 5713
5637 5649 5661 5672 5681 5689 5698 5706 5714 5720 5726 5733 5736 5740 5744 5746 5748 5751 5755 5757 5758 5759 5758 5758 5758 5758 5758 5758 5757 5756 5754 5751 5749 5746 5742 5739 5735 5731 5727 5723 5718 5713 5708 5702
5639 5651 5661 5671 5680 5689 5695 5702 5710 5717 5723 5729 5732 5737 5740 5741 5743 5746 5749 5751 5752 5752 5752 5752 5752 5752 5751 5750 5749 5748 5746 5743 5740 5737 5734 5730 5727 5723 5718 5713 5708 5703 5697 5690
5640 5650 5659 5668 5677 5685 5693 5700 5706 5713 5718 5723 5728 5732 5734 5736 5738 5741 5743 5745 5746 5746 5746 5746 5745 5744 5743 5742 5741 5740 5738 5735 5732 5728 5725 5721 5717 5713 5708 5703 5697 5690 5684 5677
5639 5650 5659 5668 5676 5683 5690 5696 5702 5709 5715 5721 5725 5730 5729 5731 5733 5735 5737 5738 5739 5739 5739 5738 5738 5737 5736 5735 5734 5732 5729 5726 5723 5720 5716 5712 5708 5702 5697 5691 5684 5677 5669 5661
5641 5650 5658 5667 5675 5682 5688 5694 5701 5707 5712 5717 5721 5726 5724 5726 5728 5729 5730 5731 5732 5732 5732 5731 5731 5730 5729 5728 5726 5724 5721 5718 5714 5711 5707 5702 5697 5691 5685 5678 5670 5663 5654 5646
5643 5650 5656 5663 5671 5676 5682 5689 5696 5702 5706 5711 5715 5721 5720 5721 5722 5723 5724 5725 5725 5725 5725 5725 5724 5723 5722 5720 5718 5716 5712 5709 5705 5701 5697 5691 5685 5679 5672 5664 5656 5648 5639 5630
5643 5650 5658 5664 5671 5678 5684 5689 5694 5698 5702 5707 5711 5714 5715 5715 5716 5717 5718 5718 5719 5719 5719 5719 5718 5717 5715 5713 5710 5707 5704 5700 5696 5691 5686 5680 5673 5666 5659 5651 5642 5633 5624 5614
5642 5649 5655 5661 5667 5673 5678 5683 5687 5692 5697 5701 5705 5707 5708 5708 5709 5711 5711 5712 5713 5713 5713 5712 5711 5709 5707 5705 5702 5699 5695 5690 5686 5680 5675 5668 5661 5653 5645 5637 5627 5618 5608 5598
5642 5648 5653 5658 5663 5667 5672 5677 5681 5685 5690 5694 5698 5701 5701 5702 5703 5704 5705 5706 5706 5706 5706 5705 5703 5702 5699 5696 5693 5689 5685 5680 5675 5669 5663 5656 5648 5640 5631 5622 5612 5602 5592 5581
5640 5645 5650 5655 5658 5662 5668 5673 5676 5680 5684 5688 5691 5696 5694 5696 5697 5698 5699 5699 5699 5699 5698 5697 5695 5693 5690 5687 5684 5679 5675 5670 5664 5658 5651 5643 5634 5625 5616 5606 5597 5587 5576 5565
5637 5641 5646 5650 5655 5658 5666 5668 5671 5674 5678 5682 5685 5688 5689 5690 5691 5692 5693 5693 5692 5691 5690 5689 5686 5684 5681 5678 5674 5670 5665 5659 5652 5645 5637 5629 5620 5610 5601 5591 5582 5571 5560 5548
5634 5638 5642 5646 5650 5655 5661 5664 5666 5670 5674 5677 5679 5681 5682 5683 5684 5685 5685 5685 5684 5683 5682 5680 5678 5676 5673 5669 5664 5659 5654 5647 5640 5632 5623 5614 5605 5595 5586 5577 5567 5556 5545 5532
5631 5636 5641 5644 5647 5652 5658 5659 5661 5665 5669 5671 5673 5674 5675 5676 5677 5678 5677 5676 5676 5675 5673 5672 5670 5667 5664 5659 5654 5649 5642 5634 5626 5617 5608 5599 5589 5580 5571 5562 5552 5540 5528 5515
5629 5633 5637 5640 5643 5648 5652 5654 5657 5662 5665 5665 5666 5667 5668 5669 5670 5670 5669 5668 5667 5666 5665 5663 5661 5658 5654 5649 5643 5636 5629 5620 5611 5602 5592 5583 5574 5565 5556 5546 5535 5523 5511 5498
5626 5630 5633 5636 5639 5646 5647 5649 5652 5655 5657 5658 5659 5660 5661 5661 5661 5661 5660 5660 5659 5658 5657 5654 5651 5647 5643 5637 5630 5623 5615 5606 5596 5587 5578 5569 5560 5550 5540 5530 5518 5505 5492 5479
5623 5627 5630 5634 5639 5640 5642 5644 5646 5648 5650 5651 5652 5653 5653 5653 5653 5653 5653 5652 5651 5650 5647 5644 5641 5636 5631 5624 5617 5609 5600 5590 5581 5572 5563 5554 5545 5535 5524 5512 5500 5487 5473 5458
5620 5623 5626 5629 5632 5635 5637 5638 5640 5642 5643 5644 5645 5646 5646 5646 5646 5645 5645 5644 5642 5640 5637 5634 5629 5624 5617 5610 5602 5593 5584 5575 5567 5559 5550 5541 5531 5521 5509 5496 5482 5468 5452 5438
5617 5619 5622 5625 5628 5629 5631 5633 5635 5636 5637 5638 5638 5638 5638 5638 5638 5638 5636 5635 5632 5630 5626 5622 5616 5610 5603 5595 5587 5579 5571 5563 5554 5546 5537 5527 5516 5505 5492 5479 5463 5448 5433 5417
5614 5617 5620 5622 5624 5626 5628 5628 5629 5630 5630 5631 5631 5631 5630 5630 5630 5628 5627 5624 5622 5618 5614 5608 5602 5595 5588 5581 5573 5566 5558 5550 5542 5533 5523 5512 5500 5487 5474 5460 5447 5431 5416 5403